When you browse on this site, cookies collect data to enhance your experience and personalize the content and advertising you see.
Visit our Privacy Policy to learn more. By continuing to use the site, you agree to this use of cookies and data.
  • en France
  • Liste des pays
  • À 7 jours
  • Température de l'eau
  • Carte satellitaire
  • Carte météo
  • Widgets météo
  • user-avatar
    Se connecter

    Météo par heure à Lenkoran

    Ce jour, 20 Avril, Samedi

    Heure Température Précipitation Vent Pression Humidité
    00:00 -3°C° 0.8 mm 4 m/s 629 mmHg 95%
    01:00 -3°C° 0.9 mm 4 m/s 628 mmHg 95%
    02:00 -3°C° 0.9 mm 4 m/s 628 mmHg 95%
    03:00 -3°C° 0.9 mm 4 m/s 628 mmHg 95%
    04:00 -3°C° 1.1 mm 4 m/s 628 mmHg 95%
    05:00 -3°C° 1.1 mm 4 m/s 628 mmHg 95%
    06:00 -3°C° 1.1 mm 4 m/s 628 mmHg 95%
    07:00 -3°C° 0.3 mm 4 m/s 628 mmHg 95%
    08:00 -2°C° 0.3 mm 4 m/s 629 mmHg 94%
    09:00 -2°C° 0.3 mm 4 m/s 629 mmHg 94%
    10:00 -2°C° 1.1 mm 4 m/s 629 mmHg 94%
    11:00 -2°C° 1.1 mm 4 m/s 629 mmHg 93%
    12:00 -2°C° 1.1 mm 4 m/s 629 mmHg 93%
    13:00 -1°C° 1 mm 3 m/s 630 mmHg 92%
    14:00 -1°C° 1 mm 3 m/s 630 mmHg 92%
    15:00 -1°C° 1 mm 3 m/s 630 mmHg 91%
    16:00 -2°C° 0.4 mm 3 m/s 630 mmHg 92%
    17:00 -2°C° 0.4 mm 3 m/s 631 mmHg 92%
    18:00 -2°C° 0.4 mm 3 m/s 631 mmHg 93%
    19:00 -2°C° 0.1 mm 2 m/s 631 mmHg 93%
    20:00 -2°C° 0.1 mm 2 m/s 632 mmHg 94%
    21:00 -2°C° 0.1 mm 2 m/s 632 mmHg 94%
    22:00 -2°C° 0.1 mm 2 m/s 632 mmHg 94%
    23:00 -2°C° 0.1 mm 2 m/s 632 mmHg 94%

    Demain, 21 Avril, Dimanche

    Heure Température Précipitation Vent Pression Humidité
    00:00 -2°C° 0.1 mm 2 m/s 632 mmHg 95%
    01:00 -2°C° 0 mm 2 m/s 632 mmHg 95%
    02:00 -2°C° 0 mm 2 m/s 632 mmHg 95%
    03:00 -2°C° 0 mm 2 m/s 632 mmHg 95%
    04:00 -2°C° 0.1 mm 2 m/s 632 mmHg 94%
    05:00 -2°C° 0.1 mm 2 m/s 632 mmHg 94%
    06:00 -2°C° 0.1 mm 2 m/s 632 mmHg 94%
    07:00 -2°C° 0.1 mm 3 m/s 632 mmHg 93%
    08:00 -1°C° 0.1 mm 3 m/s 632 mmHg 91%
    09:00 -1°C° 0.1 mm 3 m/s 632 mmHg 90%
    10:00 0°C° 0.1 mm 3 m/s 632 mmHg 89%
    11:00 0°C° 0.1 mm 3 m/s 632 mmHg 87%
    12:00 0°C° 0.1 mm 3 m/s 632 mmHg 86%
    13:00 0°C° 0.1 mm 3 m/s 632 mmHg 86%
    14:00 0°C° 0.1 mm 3 m/s 632 mmHg 87%
    15:00 0°C° 0.1 mm 3 m/s 631 mmHg 87%
    16:00 0°C° 0 mm 3 m/s 631 mmHg 89%
    17:00 -1°C° 0 mm 3 m/s 631 mmHg 90%
    18:00 -1°C° 0 mm 3 m/s 631 mmHg 92%
    19:00 -1°C° 0.1 mm 3 m/s 631 mmHg 92%
    20:00 -1°C° 0.1 mm 2 m/s 632 mmHg 92%
    21:00 -1°C° 0.1 mm 2 m/s 632 mmHg 92%
    22:00 -1°C° 0.1 mm 2 m/s 632 mmHg 92%
    23:00 -1°C° 0.1 mm 2 m/s 632 mmHg 92%

    Après-demain, 22 Avril, Lundi

    Heure Température Précipitation Vent Pression Humidité
    00:00 +1°C° 0.1 mm 1 m/s 632 mmHg 92%
    01:00 -2°C° 0.1 mm 2 m/s 632 mmHg 93%
    02:00 -2°C° 0.1 mm 2 m/s 631 mmHg 93%
    03:00 -2°C° 0.1 mm 2 m/s 631 mmHg 94%
    04:00 -2°C° 0.1 mm 2 m/s 631 mmHg 94%
    05:00 -2°C° 0.1 mm 2 m/s 631 mmHg 93%
    06:00 -1°C° 0.1 mm 2 m/s 631 mmHg 93%
    07:00 -1°C° 0.1 mm 2 m/s 631 mmHg 92%
    08:00 -1°C° 0.1 mm 2 m/s 631 mmHg 92%
    09:00 0°C° 0.1 mm 3 m/s 631 mmHg 91%
    10:00 0°C° 0.4 mm 3 m/s 631 mmHg 91%
    11:00 -1°C° 0.4 mm 4 m/s 631 mmHg 91%
    12:00 -1°C° 0.4 mm 4 m/s 631 mmHg 90%
    13:00 -1°C° 0.4 mm 4 m/s 630 mmHg 91%
    14:00 -1°C° 0.4 mm 4 m/s 630 mmHg 91%
    15:00 -1°C° 0.4 mm 4 m/s 630 mmHg 92%
    16:00 -1°C° 1.3 mm 4 m/s 630 mmHg 92%
    17:00 0°C° 1.3 mm 3 m/s 630 mmHg 93%
    18:00 -1°C° 1.3 mm 3 m/s 630 mmHg 93%
    19:00 -1°C° 2.7 mm 3 m/s 630 mmHg 94%
    20:00 -1°C° 2.7 mm 3 m/s 631 mmHg 95%
    21:00 -1°C° 2.7 mm 3 m/s 631 mmHg 96%
    22:00 -1°C° 1.5 mm 3 m/s 631 mmHg 96%
    23:00 -1°C° 1.5 mm 3 m/s 631 mmHg 96%

    23 Avril, Mardi

    Heure Température Précipitation Vent Pression Humidité
    00:00 -2°C° 1.5 mm 3 m/s 631 mmHg 96%
    01:00 -2°C° 1.3 mm 3 m/s 631 mmHg 95%
    02:00 -2°C° 1.3 mm 3 m/s 631 mmHg 94%
    03:00 -4°C° 1.3 mm 3 m/s 631 mmHg 93%
    04:00 -3°C° 0.9 mm 2 m/s 632 mmHg 92%
    05:00 -3°C° 0.9 mm 2 m/s 632 mmHg 91%
    06:00 -3°C° 0.9 mm 2 m/s 633 mmHg 90%
    07:00 -3°C° 0.6 mm 2 m/s 633 mmHg 89%
    08:00 -2°C° 0.6 mm 2 m/s 634 mmHg 87%
    09:00 -2°C° 0.6 mm 3 m/s 635 mmHg 85%
    10:00 -2°C° 0.5 mm 3 m/s 635 mmHg 85%
    11:00 -1°C° 0.5 mm 3 m/s 636 mmHg 84%
    12:00 -1°C° 0.5 mm 3 m/s 636 mmHg 84%
    13:00 -1°C° 0.4 mm 3 m/s 636 mmHg 83%
    14:00 0°C° 0.4 mm 3 m/s 637 mmHg 83%
    15:00 0°C° 0.4 mm 3 m/s 637 mmHg 83%
    16:00 -1°C° 0.3 mm 3 m/s 637 mmHg 83%
    17:00 -1°C° 0.3 mm 2 m/s 637 mmHg 84%
    18:00 -1°C° 0.3 mm 2 m/s 637 mmHg 85%
    19:00 -2°C° 0.2 mm 2 m/s 637 mmHg 84%
    20:00 -2°C° 0.2 mm 2 m/s 637 mmHg 84%
    21:00 -1°C° 0.2 mm 1 m/s 637 mmHg 84%
    22:00 -1°C° 0.1 mm 1 m/s 637 mmHg 83%
    23:00 -3°C° 0.1 mm 2 m/s 637 mmHg 82%

    24 Avril, Mercredi

    Heure Température Précipitation Vent Pression Humidité
    00:00 -4°C° 0.1 mm 2 m/s 637 mmHg 81%
    01:00 -4°C° 0 mm 2 m/s 637 mmHg 81%
    02:00 -4°C° 0 mm 2 m/s 637 mmHg 80%
    03:00 -5°C° 0 mm 2 m/s 637 mmHg 79%
    04:00 -4°C° 0 mm 2 m/s 637 mmHg 78%
    05:00 -4°C° 0 mm 2 m/s 638 mmHg 76%
    06:00 -3°C° 0 mm 2 m/s 638 mmHg 75%
    07:00 0°C° 0 mm 1 m/s 639 mmHg 75%
    08:00 +1°C° 0 mm 1 m/s 639 mmHg 74%
    09:00 +3°C° 0 mm 1 m/s 640 mmHg 74%
    10:00 +3°C° 0 mm 1 m/s 639 mmHg 73%
    11:00 +3°C° 0 mm 2 m/s 639 mmHg 73%
    12:00 +3°C° 0 mm 2 m/s 639 mmHg 72%
    13:00 +3°C° 0 mm 2 m/s 639 mmHg 72%
    14:00 +3°C° 0 mm 2 m/s 639 mmHg 72%
    15:00 +2°C° 0 mm 3 m/s 638 mmHg 72%
    16:00 +2°C° 0 mm 2 m/s 638 mmHg 71%
    17:00 +1°C° 0 mm 2 m/s 638 mmHg 70%
    18:00 -1°C° 0 mm 2 m/s 638 mmHg 69%
    19:00 -2°C° 0 mm 2 m/s 638 mmHg 69%
    20:00 -2°C° 0 mm 2 m/s 638 mmHg 68%
    21:00 -3°C° 0 mm 2 m/s 638 mmHg 68%
    22:00 -4°C° 0 mm 2 m/s 637 mmHg 66%
    23:00 -4°C° 0 mm 2 m/s 637 mmHg 63%

    25 Avril, Jeudi

    Heure Température Précipitation Vent Pression Humidité
    00:00 -4°C° 0 mm 2 m/s 637 mmHg 61%
    01:00 -4°C° 0 mm 2 m/s 637 mmHg 58%
    02:00 -4°C° 0 mm 2 m/s 637 mmHg 55%
    03:00 -4°C° 0 mm 2 m/s 637 mmHg 52%
    04:00 -4°C° 0 mm 2 m/s 637 mmHg 52%
    05:00 -1°C° 0 mm 1 m/s 637 mmHg 53%
    06:00 -1°C° 0 mm 1 m/s 638 mmHg 53%
    07:00 -1°C° 0 mm 2 m/s 638 mmHg 57%
    08:00 +1°C° 0 mm 2 m/s 639 mmHg 61%
    09:00 +3°C° 0 mm 2 m/s 640 mmHg 65%
    10:00 +2°C° 0 mm 3 m/s 639 mmHg 65%
    11:00 +3°C° 0 mm 3 m/s 639 mmHg 64%
    12:00 +3°C° 0 mm 3 m/s 639 mmHg 63%
    13:00 +3°C° 0 mm 3 m/s 639 mmHg 63%
    14:00 +3°C° 0 mm 3 m/s 639 mmHg 63%
    15:00 +3°C° 0 mm 3 m/s 639 mmHg 63%
    16:00 +2°C° 0 mm 3 m/s 638 mmHg 64%
    17:00 +2°C° 0 mm 2 m/s 638 mmHg 65%
    18:00 +1°C° 0 mm 2 m/s 638 mmHg 65%
    19:00 +1°C° 0 mm 1 m/s 638 mmHg 65%
    20:00 0°C° 0 mm 1 m/s 638 mmHg 65%
    21:00 -1°C° 0 mm 1 m/s 638 mmHg 65%
    22:00 -1°C° 0 mm 1 m/s 637 mmHg 65%
    23:00 -1°C° 0 mm 1 m/s 637 mmHg 64%
    Voir plus